STARLINK-1122, 44949

Orbit data source: Space-Track

STARLINK-1122, 44949 is a payload satellite owned by SpaceX/Seattle (US) in LEO that was launched on Tue, 07 Jan 2020 UTC via an FALCON 9 launch vehicle from the Air Force Eastern Test Range (AFETR). Payload-class satellites include a variety of spacecraft equipped with specific instruments for various scientific and technological missions. These include communications satellites like Starlink; space stations such as the ISS; scientific satellites like the Hubble; Earth observation satellites from companies like Planet Labs, Umbra, and HawkEye 360; GPS; miniature CubeSats for education and research; and military/defense satellites.

Loading next visibility...
Identifier
44949, 2020-001AM
Orbit
LEO
Country
Flag of USUS
Related business
Manufacturer
SpaceX/Seattle
Mission
Partially operational Commercial Communications
Bus & Motor
STARLINK, Unknown motor
Mass
260 kg wet, ~248 kg dry
Launch date (UTC)
2020-01-07 (6 years ago)
Launch vehicle
FALCON 9
Launch site
Air Force Eastern Test Range (AFETR)
Object type
Payload
Rocket body
Debris
Shape & HBR
Box + 1 Pan, 10.1 m
Radar Cross Section
13.562 m², Large (>1 m²)

Expand to show TLE details & history
Last TLE update: 2 days ago

TLE from 2 days ago
0 STARLINK-1122
1 44949U 20001AM  26171.34120222  .00062195  00000-0  87999-3 0  9994
2 44949  53.1536 193.7439 0007383  14.7045 345.4180 15.55922020356070
Epoch: 2026-06-20T08:11Z
TLE epoch observation values (Epoch: 2026-06-20T08:11:19.871Z)
Latitude
-0.00006°
Longitude
162.35384°
Altitude
395.54 km
Speed
7.677 km/s
True Right ascension
12h 54m 58s
True Declination
0° 00' 00"
Sunlit
Object was in daylight at epoch
Visualization orbit readout
Latitude
Unknown
Longitude
Unknown
Altitude
Unknown
Speed
Unknown
Apparent Right ascension
Unknown
Apparent Declination
Unknown
Sunlit
N/A
Visualization observer readout
Local Sidereal Time
23:18:55
Azimuth
Unknown
Elevation
Unknown
Doppler factor
Unknown
Orbital elements
Apogee altitude
404.738 km
Perigee altitude
394.73 km
Semi-major axis
6,777.871 km
Eccentricity
0.00074
Inclination
53.1536°
RAAN
193.7439°
Arg. of periapsis
14.7045°
True anomaly
345.39668°
Mean anomaly
345.418°
Eccentric anomaly
345.40734°
Mean motion
3.88958 °/min
Orbital period
92.55 mins
BSTAR
0.00087999
Loading maneuver chart data...
Computing Atmospheric mass density...

Documentation

Showing up to 5 results
|